Temp
66 67 64 63 49 46 42 50 59 59 58 64 67 63 60 60 58 52 69 75 78 74 75 75 74 75 75 75 75 75 75 76 76 77 77 77 76 76 76 75 75 75 77 77 78 77 77 76 75
64 71 64 56 44 37 41 54 59 61 64 67 67 65 62 57 67 66 65 73 75 76 75 73 73 74 75 74 74 74 75 75 76 76 76 76 76 76 76 76 75 75 76 77 77 77 77 76 76
67 70 56 49 43 39 42 55 59 62 67 65 62 64 61 59 65 65 69 72 73 72 73 72 72 74 74 74 74 74 74 75 75 75 76 76 76 75 75 75 75 75 75 76 77 77 76 76 75
63 61 57 46 43 50 53 60 60 62 65 65 63 56 62 66 66 68 71 72 70 68 69 70 72 73 73 73 74 74 74 74 74 75 75 75 75 75 75 74 74 74 75 75 76 76 76 75 74
61 55 46 42 46 53 58 64 63 61 63 63 64 57 58 66 70 70 70 70 67 65 66 68 70 71 72 72 72 72 72 73 73 73 74 74 74 74 74 74 74 74 74 75 75 75 74 74 74
54 54 42 41 47 55 61 67 65 61 65 65 61 58 57 67 68 67 69 67 68 67 67 66 65 67 69 69 70 70 70 70 70 70 70 71 71 72 72 73 73 74 74 74 74 74 73 73 73
50 47 42 44 48 53 62 66 61 59 59 65 62 57 59 60 66 67 66 66 66 67 65 64 64 65 65 66 67 67 68 69 69 69 68 68 68 68 68 69 70 71 72 73 73 73 72 72 72
55 50 44 44 47 50 60 59 64 61 57 65 67 53 52 61 67 66 65 64 63 63 63 63 62 62 61 61 64 65 66 66 66 66 65 64 64 65 65 65 67 69 70 71 71 72 71 71 71
59 45 41 46 49 53 58 56 61 61 60 60 62 59 61 65 67 64 61 60 61 63 61 61 61 60 60 61 62 62 64 64 64 62 62 60 58 59 60 62 64 66 67 69 69 69 69 68 68
51 44 46 54 54 50 55 57 55 54 55 55 56 60 63 64 62 61 60 58 57 57 58 59 58 59 60 67 60 59 62 59 59 59 59 58 58 58 60 58 61 63 62 63 67 68 67 64 66
52 45 54 54 54 56 55 54 56 53 50 56 55 57 60 59 60 59 58 58 57 57 58 58 59 57 58 58 56 56 56 55 56 57 58 58 58 56 55 54 54 55 57 57 62 63 64 64 65
47 55 57 57 55 54 52 55 51 53 54 59 56 60 58 58 59 59 58 57 57 56 57 58 57 58 56 55 54 55 55 55 55 56 58 55 53 53 54 53 53 53 54 54 54 57 62 65 65
51 53 56 55 54 52 55 49 49 50 56 56 60 59 56 57 57 57 58 57 56 56 57 56 56 56 57 56 54 54 54 54 54 54 56 55 53 52 52 53 53 53 53 53 52 53 55 58 63
50 52 54 56 53 53 50 47 47 50 56 55 56 55 55 56 56 55 56 56 57 58 56 56 56 56 57 54 53 52 52 52 52 52 53 54 52 51 51 51 52 51 52 53 52 52 52 53 55
52 46 49 50 52 48 49 44 44 51 54 53 53 51 54 55 56 55 56 57 57 57 57 56 55 56 54 52 52 51 51 52 50 50 51 52 53 51 50 49 49 50 51 51 52 52 51 51 52
45 43 36 48 49 48 48 38 49 51 51 51 50 48 51 53 55 54 56 56 55 54 55 56 60 53 52 51 50 50 50 48 48 48 49 50 51 51 48 48 48 49 51 50 49 49 51 49 49
39 31 36 43 49 45 44 38 47 49 48 47 47 47 50 51 51 53 54 54 53 53 53 53 53 52 51 51 50 48 48 47 46 46 46 48 49 50 47 46 46 48 48 48 48 50 48 48 48
33 33 39 40 44 43 39 39 45 46 48 47 46 46 47 49 51 52 53 53 52 51 51 52 52 51 50 48 46 45 45 45 44 44 45 47 47 48 46 45 45 46 46 46 47 46 48 47 48
41 37 34 38 44 41 39 40 43 45 46 45 44 46 47 48 51 52 52 51 50 50 50 50 50 48 47 44 42 40 40 41 41 43 45 46 45 46 45 43 44 44 43 44 45 46 45 45 46
40 37 37 39 42 39 37 39 44 45 48 49 47 46 47 47 47 51 49 49 50 48 48 49 49 47 46 44 42 41 39 39 41 42 43 44 44 44 45 43 42 42 42 43 43 43 42 43 44
39 37 36 36 39 39 34 34 39 46 47 47 49 52 50 48 49 49 49 47 46 46 45 47 47 46 45 44 42 41 40 39 38 39 40 42 43 43 43 42 41 41 41 41 41 41 41 40 42
34 42 42 39 34 26 36 23 36 42 44 45 46 45 48 47 50 50 49 46 46 44 44 46 46 45 45 43 40 38 35 34 36 37 38 39 40 40 41 41 42 44 44 43 42 44 42 42 40
37 42 39 36 31 29 29 22 35 41 42 42 43 44 45 45 49 48 48 49 46 44 42 43 43 43 42 41 39 36 35 35 36 36 36 36 37 39 39 39 40 41 42 43 42 42 42 42 41
42 38 37 34 30 14 29 28 30 39 44 41 42 44 45 44 48 49 48 46 43 42 41 41 41 41 41 39 38 36 34 34 33 33 33 34 35 36 38 41 40 41 41 40 41 41 41 41 41
38 32 19 16 10 15 31 27 33 42 46 46 43 43 43 46 45 45 43 42 41 41 40 40 40 39 39 38 37 36 35 34 33 33 32 33 34 35 37 39 38 39 39 40 40 39 39 39 39
32 31 22 14 15 20 30 24 36 43 45 46 46 45 44 43 45 44 42 42 41 41 40 40 38 37 37 37 36 36 36 34 33 33 33 33 34 35 38 38 38 38 39 38 38 38 38 39 38
33 26 34 21 13 15 25 32 41 42 41 41 42 43 43 43 44 43 43 41 40 39 39 38 37 36 36 36 35 35 35 34 33 33 33 32 33 36 37 36 36 36 37 37 37 36 36 37 38
34 37 27 21 13 11 22 27 33 36 39 40 40 41 42 43 43 43 42 40 39 39 38 37 36 35 35 35 35 35 34 34 33 33 32 31 34 35 34 34 34 34 35 35 35 35 36 35 36
29 28 29 29 25 16 15 26 37 41 42 38 39 41 42 43 43 42 40 39 39 38 36 35 34 34 34 35 34 33 33 33 33 31 30 32 34 34 33 33 33 33 33 34 34 34 34 34 34
36 31 32 27 24 21 19 26 39 41 44 43 39 41 41 42 43 41 39 37 36 36 34 33 33 33 33 34 33 33 32 31 30 29 29 33 32 33 32 32 32 33 33 34 33 33 34 33 33
MSLP
1013.13 1012.99 1013.49 1013.58 1014.75 1014.65 1013.92 1012.10 1010.56 1009.47 1008.87 1008.49 1008.48 1009.12 1010.34 1011.10 1011.62 1012.84 1012.71 1012.50 1012.20 1012.67 1013.00 1013.05 1013.13 1013.38 1013.62 1013.84 1014.03 1014.17 1014.29 1014.34 1014.48 1014.58 1014.68 1014.68 1014.91 1015.09 1015.22 1015.39 1015.50 1015.59 1015.72 1015.69 1015.85 1015.98 1016.10 1016.14 1016.37
1013.28 1013.09 1013.54 1013.92 1014.77 1014.70 1013.43 1011.54 1010.70 1009.05 1008.72 1008.35 1008.68 1009.65 1010.39 1011.82 1012.00 1012.63 1012.89 1012.83 1012.57 1012.77 1013.05 1013.20 1013.28 1013.46 1013.69 1013.89 1014.01 1014.14 1014.38 1014.50 1014.69 1014.78 1014.75 1014.87 1015.02 1015.08 1015.28 1015.32 1015.57 1015.65 1015.78 1015.76 1015.84 1015.93 1016.04 1016.20 1016.31
1013.36 1013.38 1013.98 1014.25 1014.19 1013.91 1012.74 1010.76 1009.57 1009.18 1008.28 1008.53 1009.22 1009.94 1011.08 1012.25 1012.44 1012.96 1013.01 1012.97 1012.93 1013.12 1013.28 1013.47 1013.49 1013.60 1013.75 1013.91 1014.15 1014.26 1014.35 1014.50 1014.73 1014.82 1014.91 1014.91 1015.12 1015.17 1015.31 1015.36 1015.42 1015.62 1015.66 1015.72 1015.69 1015.82 1015.93 1016.07 1016.25
1013.46 1013.61 1013.91 1013.94 1013.65 1012.45 1011.63 1010.25 1009.15 1009.20 1008.51 1008.78 1009.44 1010.89 1011.74 1012.11 1012.36 1012.73 1013.07 1013.09 1013.14 1013.61 1013.59 1013.71 1013.67 1013.82 1013.96 1014.13 1014.24 1014.32 1014.37 1014.47 1014.50 1014.66 1014.83 1014.96 1015.12 1015.23 1015.32 1015.33 1015.42 1015.52 1015.67 1015.70 1015.63 1015.65 1015.76 1015.97 1016.03
1013.63 1013.97 1014.20 1013.98 1013.14 1011.68 1010.62 1009.73 1008.84 1008.74 1008.72 1008.94 1009.33 1011.13 1012.11 1012.31 1012.36 1012.68 1013.01 1013.24 1013.44 1013.98 1013.99 1013.98 1013.96 1014.08 1014.14 1014.26 1014.35 1014.47 1014.55 1014.58 1014.66 1014.65 1014.72 1014.86 1015.11 1015.17 1015.27 1015.30 1015.31 1015.38 1015.40 1015.54 1015.63 1015.62 1015.58 1015.70 1015.84
1013.81 1013.69 1014.11 1013.91 1012.65 1011.18 1009.83 1008.96 1008.49 1008.69 1008.81 1009.14 1009.74 1010.93 1012.27 1012.42 1012.54 1012.88 1013.14 1013.41 1013.55 1013.95 1014.14 1014.26 1014.39 1014.39 1014.47 1014.61 1014.61 1014.72 1014.90 1014.88 1014.91 1014.98 1014.87 1014.88 1014.92 1015.03 1015.16 1015.13 1015.25 1015.19 1015.25 1015.23 1015.29 1015.36 1015.43 1015.46 1015.50
1013.64 1013.80 1013.58 1013.08 1012.03 1010.95 1009.15 1008.38 1008.65 1008.71 1009.06 1009.34 1009.77 1011.09 1012.41 1012.78 1012.67 1012.77 1013.12 1013.45 1013.77 1013.93 1014.24 1014.52 1014.64 1014.70 1014.75 1014.83 1014.97 1015.07 1015.12 1015.14 1015.06 1015.12 1015.10 1015.12 1014.97 1015.08 1015.15 1015.07 1015.07 1015.03 1015.11 1015.08 1015.02 1015.02 1015.08 1015.10 1015.19
1013.02 1013.56 1013.22 1012.67 1011.89 1010.54 1009.12 1008.64 1008.36 1008.80 1009.31 1009.30 1009.56 1011.16 1012.50 1012.63 1012.63 1012.85 1013.14 1013.60 1013.94 1014.24 1014.40 1014.63 1014.88 1015.00 1015.13 1015.24 1015.28 1015.34 1015.27 1015.37 1015.41 1015.46 1015.48 1015.51 1015.40 1015.45 1015.46 1015.38 1015.31 1015.01 1014.95 1014.93 1014.85 1014.72 1014.65 1014.66 1014.72
1012.47 1013.14 1012.81 1012.21 1011.50 1010.32 1009.44 1009.09 1008.92 1009.15 1009.52 1009.82 1010.36 1011.07 1011.07 1011.83 1012.40 1013.11 1013.60 1013.96 1014.26 1014.44 1014.59 1014.74 1014.95 1015.18 1015.30 1015.45 1015.50 1015.47 1015.45 1015.58 1015.70 1015.74 1015.70 1015.72 1015.73 1015.66 1015.64 1015.63 1015.47 1015.33 1015.14 1014.96 1014.68 1014.60 1014.48 1014.41 1014.42
1012.49 1012.50 1012.10 1011.34 1010.96 1010.49 1009.99 1009.51 1009.60 1009.77 1010.12 1010.67 1011.35 1011.62 1011.66 1011.96 1012.66 1013.06 1013.52 1014.06 1014.43 1014.72 1014.85 1014.87 1015.09 1015.28 1015.38 1015.31 1015.53 1015.65 1015.74 1015.85 1015.91 1015.90 1015.95 1015.98 1015.94 1015.83 1015.68 1015.69 1015.53 1015.31 1015.18 1014.93 1014.65 1014.48 1014.37 1014.32 1014.24
1011.90 1011.85 1011.74 1011.41 1011.09 1010.87 1010.61 1010.17 1010.07 1010.37 1010.78 1010.87 1011.32 1011.86 1012.02 1012.27 1012.69 1013.12 1013.41 1013.75 1014.25 1014.55 1014.68 1014.92 1015.25 1015.42 1015.48 1015.56 1015.69 1015.80 1016.04 1016.11 1016.16 1016.11 1016.04 1016.03 1016.01 1015.98 1015.90 1015.79 1015.62 1015.45 1015.27 1015.01 1014.64 1014.35 1014.13 1013.99 1014.01
1011.78 1011.41 1011.36 1011.27 1011.18 1011.00 1011.04 1011.04 1010.81 1010.85 1010.87 1010.76 1010.95 1011.24 1011.82 1012.32 1012.73 1012.89 1013.34 1013.67 1014.19 1014.51 1014.76 1014.98 1015.35 1015.50 1015.68 1015.84 1015.97 1016.03 1016.16 1016.21 1016.20 1016.14 1016.03 1016.12 1016.25 1016.17 1016.07 1015.97 1015.79 1015.60 1015.31 1015.12 1014.90 1014.60 1014.03 1013.63 1013.44
1011.63 1011.42 1011.14 1011.28 1011.45 1011.31 1011.33 1011.62 1011.68 1011.21 1010.95 1011.20 1011.12 1011.68 1012.00 1012.30 1012.54 1012.76 1013.03 1013.53 1013.85 1014.40 1014.77 1015.06 1015.42 1015.65 1015.65 1015.80 1015.94 1016.09 1016.18 1016.18 1016.21 1016.18 1016.16 1016.19 1016.34 1016.43 1016.16 1015.95 1015.74 1015.52 1015.19 1015.04 1014.77 1014.63 1014.31 1013.95 1013.50
1011.42 1011.31 1011.17 1011.24 1011.61 1011.67 1011.85 1012.06 1012.10 1010.87 1010.66 1011.43 1011.58 1011.74 1012.07 1012.36 1012.57 1012.83 1013.19 1013.63 1013.80 1014.22 1014.75 1015.01 1015.39 1015.59 1015.65 1016.06 1016.20 1016.36 1016.30 1016.27 1016.23 1016.24 1016.28 1016.28 1016.30 1016.31 1016.11 1015.93 1015.75 1015.49 1015.16 1014.91 1014.71 1014.44 1014.18 1013.99 1013.76
1011.48 1011.63 1011.40 1011.42 1011.59 1012.03 1012.30 1012.38 1011.31 1010.78 1010.91 1011.13 1011.68 1011.95 1011.96 1012.22 1012.38 1012.57 1012.87 1013.30 1013.54 1013.99 1014.51 1014.94 1015.36 1015.59 1016.04 1016.31 1016.40 1016.43 1016.38 1016.34 1016.47 1016.51 1016.41 1016.36 1016.24 1016.13 1016.03 1015.96 1015.89 1015.55 1015.14 1014.80 1014.54 1014.23 1013.99 1013.74 1013.50
1012.01 1012.17 1012.26 1011.45 1011.78 1012.53 1012.84 1011.80 1010.27 1010.01 1010.84 1011.27 1011.53 1012.02 1012.09 1012.13 1012.19 1012.42 1012.66 1012.95 1013.46 1014.06 1014.55 1014.86 1015.28 1015.83 1016.15 1016.37 1016.44 1016.43 1016.42 1016.46 1016.55 1016.55 1016.45 1016.28 1016.12 1015.97 1015.93 1015.94 1015.85 1015.53 1015.15 1014.92 1014.67 1014.30 1013.96 1013.63 1013.33
1012.68 1012.72 1012.34 1011.96 1011.70 1012.31 1012.90 1011.77 1010.72 1010.22 1010.80 1011.28 1011.59 1011.75 1012.04 1012.15 1012.24 1012.33 1012.55 1013.00 1013.60 1014.05 1014.48 1014.98 1015.36 1015.90 1016.18 1016.29 1016.26 1016.32 1016.41 1016.62 1016.68 1016.67 1016.54 1016.34 1016.18 1016.02 1016.00 1015.93 1015.72 1015.41 1015.23 1015.00 1014.62 1014.23 1014.05 1013.67 1013.18
1012.83 1012.79 1012.19 1012.03 1012.01 1012.26 1012.83 1011.83 1011.13 1010.78 1011.03 1011.11 1011.48 1011.53 1011.78 1012.05 1012.07 1012.25 1012.66 1013.19 1013.76 1014.17 1014.52 1014.97 1015.48 1015.91 1016.24 1016.40 1016.45 1016.60 1016.71 1016.75 1016.86 1016.82 1016.56 1016.29 1016.19 1016.00 1015.93 1015.81 1015.65 1015.36 1015.22 1014.96 1014.69 1014.36 1013.86 1013.45 1013.07
1012.39 1012.36 1012.34 1012.08 1011.95 1012.33 1012.47 1011.77 1010.80 1010.61 1010.74 1010.70 1010.90 1011.26 1011.41 1011.63 1011.78 1012.08 1012.70 1013.30 1013.86 1014.30 1014.81 1015.17 1015.54 1015.99 1016.41 1016.73 1016.97 1017.17 1017.16 1016.93 1016.80 1016.64 1016.43 1016.27 1016.06 1015.96 1015.81 1015.56 1015.44 1015.27 1015.28 1015.01 1014.73 1014.34 1013.82 1013.30 1012.96
1012.69 1012.60 1012.36 1012.34 1012.47 1012.80 1012.49 1011.52 1010.39 1009.94 1009.32 1009.14 1009.83 1010.54 1010.80 1011.34 1011.84 1012.22 1012.64 1013.24 1013.77 1014.32 1014.79 1015.28 1015.61 1016.08 1016.47 1016.88 1017.13 1017.21 1017.22 1016.94 1016.88 1016.59 1016.31 1016.10 1016.02 1015.85 1015.60 1015.43 1015.33 1015.10 1015.00 1014.83 1014.60 1014.41 1013.97 1013.40 1013.04
1012.46 1012.47 1012.42 1012.63 1012.86 1013.01 1012.95 1011.66 1009.92 1008.26 1008.02 1008.12 1008.48 1008.99 1009.69 1010.41 1011.38 1012.07 1012.58 1013.15 1013.87 1014.49 1014.81 1015.19 1015.58 1016.03 1016.54 1016.94 1017.09 1017.14 1017.09 1017.07 1016.88 1016.53 1016.30 1016.14 1015.98 1015.66 1015.37 1015.17 1015.10 1014.89 1014.77 1014.57 1014.37 1014.25 1014.00 1013.48 1013.15
1012.43 1012.08 1012.31 1012.90 1013.45 1014.12 1013.35 1012.40 1009.82 1008.19 1007.85 1007.71 1007.99 1008.69 1009.22 1010.02 1010.88 1011.42 1012.15 1012.94 1013.68 1014.38 1014.82 1015.07 1015.53 1016.02 1016.57 1016.85 1017.07 1017.24 1017.39 1017.29 1016.79 1016.57 1016.34 1016.14 1015.81 1015.53 1015.32 1015.18 1014.92 1014.54 1014.35 1014.16 1013.99 1013.77 1013.59 1013.28 1012.90
1012.43 1012.47 1012.88 1013.46 1014.06 1014.43 1013.93 1013.78 1009.68 1008.37 1007.89 1007.44 1007.88 1008.38 1008.85 1009.62 1010.31 1011.22 1011.92 1012.50 1013.34 1014.08 1014.64 1015.05 1015.50 1016.00 1016.51 1016.69 1016.84 1017.09 1017.08 1016.97 1016.61 1016.51 1016.31 1015.99 1015.63 1015.45 1015.28 1015.18 1014.94 1014.61 1014.30 1014.01 1013.74 1013.65 1013.38 1013.13 1012.83
1012.83 1013.28 1013.91 1014.51 1015.27 1015.61 1013.72 1012.90 1010.05 1008.08 1006.74 1006.73 1007.47 1008.05 1008.51 1009.31 1010.16 1010.99 1011.71 1012.45 1013.51 1014.09 1014.51 1015.03 1015.49 1015.97 1016.36 1016.58 1016.72 1016.81 1016.78 1016.67 1016.67 1016.46 1016.16 1015.80 1015.56 1015.34 1015.14 1014.80 1014.64 1014.36 1014.10 1013.79 1013.54 1013.29 1013.06 1012.88 1012.55
1013.48 1014.10 1015.30 1016.42 1016.93 1015.31 1013.58 1012.77 1009.27 1006.66 1006.08 1006.10 1006.82 1007.82 1008.39 1009.11 1009.98 1010.91 1011.83 1012.75 1013.51 1014.16 1014.49 1014.93 1015.44 1016.01 1016.30 1016.45 1016.56 1016.55 1016.45 1016.55 1016.52 1016.25 1015.95 1015.66 1015.28 1014.96 1014.75 1014.51 1014.29 1014.03 1013.74 1013.53 1013.30 1012.95 1012.65 1012.37 1012.05
1013.84 1014.14 1014.61 1015.57 1016.02 1015.13 1013.84 1011.60 1007.77 1006.10 1005.65 1005.70 1006.41 1007.51 1008.50 1009.32 1009.95 1010.70 1011.69 1012.47 1013.17 1013.82 1014.32 1014.83 1015.41 1015.86 1016.12 1016.29 1016.41 1016.27 1016.24 1016.23 1016.12 1015.89 1015.69 1015.32 1014.99 1014.67 1014.44 1014.17 1013.89 1013.62 1013.40 1013.16 1012.90 1012.52 1012.08 1011.77 1011.43
1013.86 1014.19 1014.07 1015.05 1015.91 1015.39 1012.84 1010.16 1007.28 1006.33 1006.39 1006.48 1007.01 1007.86 1008.65 1009.17 1009.90 1010.64 1011.50 1012.04 1012.80 1013.56 1014.09 1014.60 1015.23 1015.71 1016.05 1016.25 1016.17 1016.04 1015.93 1015.89 1015.75 1015.58 1015.36 1015.05 1014.83 1014.52 1014.20 1014.05 1013.69 1013.36 1013.04 1012.77 1012.48 1012.05 1011.63 1011.36 1010.94
1013.42 1013.70 1014.32 1015.14 1015.60 1014.83 1012.24 1010.10 1007.63 1006.74 1006.57 1006.90 1007.36 1008.00 1008.53 1008.94 1009.73 1010.43 1011.16 1011.79 1012.57 1013.20 1013.79 1014.46 1015.01 1015.48 1015.82 1015.87 1015.78 1015.70 1015.84 1015.68 1015.54 1015.40 1015.21 1015.01 1014.76 1014.42 1014.12 1013.81 1013.45 1013.02 1012.65 1012.27 1011.87 1011.43 1011.03 1010.69 1010.17
1013.65 1013.56 1013.81 1014.08 1014.05 1013.49 1012.29 1008.74 1005.92 1005.49 1005.70 1006.47 1007.12 1007.59 1008.27 1008.45 1009.22 1010.01 1011.04 1011.65 1012.33 1013.01 1013.64 1014.27 1014.85 1015.31 1015.64 1015.63 1015.54 1015.67 1015.64 1015.56 1015.52 1015.34 1015.16 1015.01 1014.67 1014.27 1013.89 1013.49 1013.01 1012.52 1012.02 1011.60 1011.16 1010.67 1010.22 1009.82 1009.35
1012.59 1012.63 1012.79 1013.78 1013.63 1012.97 1011.99 1008.12 1005.71 1005.47 1004.86 1005.69 1006.71 1007.51 1007.98 1008.33 1008.98 1009.81 1010.83 1011.46 1012.16 1012.92 1013.60 1014.19 1014.67 1015.11 1015.38 1015.28 1015.35 1015.50 1015.59 1015.57 1015.52 1015.39 1015.22 1014.92 1014.42 1014.00 1013.60 1013.11 1012.55 1011.96 1011.45 1011.01 1010.57 1009.98 1009.46 1008.99 1008.45
Wind_Speed
6 6 0 4 4 4 4 8 7 10 1 4 3 9 10 5 3 5 5 3 4 11 8 8 11 8 9 9 8 8 7 8 7 5 5 6 6 5 5 5 5 5 5 4 3 1 4 7 7
3 5 1 0 4 1 6 9 11 4 5 7 6 7 5 3 5 6 4 8 12 11 10 6 10 9 9 8 7 7 6 6 6 5 5 4 3 3 2 2 2 2 3 3 2 0 4 6 7
3 4 3 4 4 6 6 4 2 2 7 5 4 6 4 4 2 3 4 10 9 10 10 8 11 10 8 7 6 5 4 4 3 3 2 2 1 0 1 1 1 2 3 4 4 4 3 6 6
0 4 4 2 7 9 8 6 2 5 4 3 4 8 5 2 4 7 7 8 13 9 8 9 11 12 12 11 8 4 3 2 1 1 1 2 2 3 3 2 3 4 6 6 7 7 5 7 8
0 0 2 3 8 10 8 10 3 3 7 5 4 6 5 2 9 10 8 7 12 7 6 8 13 13 11 10 10 10 9 8 6 4 3 4 4 4 5 5 5 7 7 8 9 9 8 7 9
0 2 2 7 13 10 9 9 7 4 2 2 6 7 5 6 8 7 8 8 8 9 7 7 11 13 13 12 11 11 11 11 10 9 8 6 5 6 6 7 8 8 9 9 11 9 9 8 8
3 2 5 6 10 7 6 7 7 4 2 6 3 6 5 4 6 9 10 9 8 7 7 6 7 10 13 12 11 11 11 10 10 9 9 9 8 7 5 6 8 8 8 10 11 10 10 9 10
4 3 3 4 7 10 2 2 7 4 2 2 3 7 6 7 8 8 9 8 8 7 7 7 6 6 6 5 10 10 10 10 11 11 10 10 10 9 9 8 7 8 10 8 10 10 11 11 10
3 2 4 6 8 8 3 3 4 4 6 3 4 4 6 11 9 7 6 5 6 6 7 7 6 5 6 6 6 7 9 9 9 7 9 7 5 6 6 7 8 10 11 12 12 10 8 10 10
5 5 7 5 3 1 1 5 2 2 3 3 5 5 7 9 6 8 8 7 5 6 6 7 6 5 5 4 5 5 5 4 3 4 4 3 3 4 5 6 8 9 9 9 11 14 11 8 5
5 5 9 3 1 3 2 2 1 4 3 6 9 12 9 6 7 8 7 8 8 7 6 7 6 5 5 4 3 3 2 2 2 3 3 3 3 3 3 3 3 4 6 4 6 5 4 7 6
3 6 12 4 0 1 2 5 4 4 6 5 4 13 9 9 9 8 7 8 10 7 8 8 7 5 4 3 3 3 2 1 2 2 4 2 2 4 4 3 5 4 3 5 5 4 6 8 9
10 7 5 5 4 1 2 3 5 7 9 3 8 8 9 8 8 6 7 8 8 8 7 8 7 6 4 5 3 3 3 3 3 4 4 4 3 4 4 4 4 5 4 4 5 5 5 7 8
1 3 6 4 6 3 3 4 1 7 12 8 8 10 9 9 9 6 7 7 7 8 8 8 8 6 5 3 3 2 3 3 4 4 4 5 4 4 4 4 4 5 4 4 5 5 5 5 5
2 2 6 4 5 1 5 9 14 12 5 9 11 9 9 10 9 9 8 8 8 6 8 8 8 6 6 5 3 2 2 4 4 4 6 6 5 5 5 4 4 4 4 6 5 5 5 4 5
3 2 1 4 10 4 7 11 8 9 11 9 9 9 9 9 9 8 8 7 7 8 9 8 6 7 5 4 2 2 2 3 3 4 4 6 5 5 5 4 4 5 5 4 4 4 6 5 4
2 4 7 6 9 7 7 7 4 5 8 9 8 8 8 8 6 7 7 8 9 8 9 8 7 5 4 2 2 3 4 3 4 4 4 6 5 5 4 4 4 5 5 6 6 7 4 6 4
6 5 5 7 7 5 6 15 11 8 4 10 10 9 9 9 8 8 8 8 8 8 8 8 6 6 4 2 3 2 3 2 3 4 4 6 4 5 4 4 5 5 6 6 6 7 6 5 6
1 3 3 0 2 4 9 13 15 8 9 11 10 9 10 10 8 9 9 9 8 8 8 7 7 4 2 2 2 2 3 2 2 3 6 6 5 6 5 4 4 4 5 6 7 8 8 6 4
11 3 5 0 2 2 2 14 13 9 12 16 14 10 11 8 9 10 10 7 7 8 8 7 6 4 2 2 1 1 2 2 3 3 4 5 5 5 6 4 4 4 5 7 7 7 6 4 3
7 7 4 5 4 4 4 10 7 6 11 7 13 13 10 15 16 13 12 9 8 8 8 7 6 4 2 1 1 2 2 2 2 2 3 3 5 6 6 6 5 5 4 6 6 5 7 7 4
5 3 5 4 3 4 3 7 7 4 6 6 8 10 11 13 14 15 13 10 9 7 7 7 6 4 2 1 1 1 2 3 2 2 3 4 5 5 6 7 7 9 6 8 7 7 7 5 7
5 2 4 2 2 4 3 3 10 3 7 9 10 9 9 11 17 15 13 12 8 9 8 7 6 3 2 1 1 1 2 2 3 3 5 5 4 5 5 6 8 8 7 8 8 9 11 8 8
6 5 6 5 3 2 9 8 7 6 7 3 5 8 9 11 14 13 10 10 8 7 7 7 5 3 2 1 1 2 3 5 4 4 4 3 3 4 6 9 9 9 9 9 8 9 10 9 10
1 5 3 5 3 9 4 4 11 6 6 7 11 9 9 12 12 11 11 10 8 8 8 6 6 4 3 1 1 2 3 4 5 5 4 6 5 5 7 8 8 8 9 10 10 10 11 11 10
6 5 7 9 5 5 5 8 9 5 4 5 10 10 9 9 10 11 11 9 9 9 8 7 6 4 2 1 3 3 4 3 3 4 4 5 5 7 9 8 9 10 10 10 10 9 10 11 10
6 5 3 5 1 5 5 8 8 3 3 6 9 9 10 10 10 11 10 9 9 9 9 8 7 4 3 4 3 3 3 5 5 6 4 4 6 7 9 10 11 11 11 11 11 9 11 11 11
2 1 3 2 2 4 5 6 7 7 10 8 9 10 9 9 9 9 9 10 7 7 7 7 7 6 4 3 2 2 4 5 5 5 5 6 8 9 9 10 10 11 11 11 11 10 11 12 11
2 2 1 2 5 6 2 8 8 7 13 14 11 9 10 10 11 10 8 8 9 7 7 7 7 6 5 4 2 3 4 4 4 4 5 7 9 9 9 10 11 11 11 11 11 12 13 14 14
4 6 6 5 6 4 3 9 2 6 11 14 11 9 7 7 9 9 9 9 9 8 7 8 7 6 6 3 1 2 3 4 5 5 6 8 8 8 9 10 10 10 10 11 12 13 12 13 14
Wind_Direction
311 294 348 21 51 78 239 257 240 281 231 135 97 89 114 62 51 154 237 89 45 130 125 120 121 119 119 115 106 100 94 94 89 109 104 108 106 101 93 81 70 50 33 55 84 181 226 216 187
337 305 81 38 120 198 268 251 273 219 148 96 71 103 48 73 58 125 85 70 74 113 100 95 109 111 115 120 118 114 108 97 88 83 85 73 80 108 100 89 64 31 354 352 355 175 201 215 204
303 213 95 159 183 204 232 248 291 243 98 87 85 72 92 110 28 102 145 103 98 82 88 84 87 89 95 111 121 120 113 104 92 92 97 107 96 4 226 212 247 263 274 290 288 279 232 212 212
109 0 341 184 247 258 234 266 291 177 55 103 123 75 56 237 128 135 127 106 89 79 72 82 88 92 87 79 76 94 125 122 94 4 308 275 265 245 254 248 252 256 263 258 257 267 272 235 216
252 70 219 219 247 254 235 226 118 178 156 197 129 145 97 25 118 128 118 104 103 92 90 93 98 98 98 99 86 75 70 63 50 29 331 305 301 307 294 286 277 278 276 276 268 261 268 269 240
247 150 176 227 249 255 265 205 144 154 90 354 94 105 155 149 104 125 109 104 104 118 103 92 90 87 88 92 90 82 81 80 75 62 53 46 23 354 319 300 292 283 280 283 277 266 258 261 260
175 75 220 243 265 284 253 146 152 163 141 185 157 96 156 132 146 122 115 107 107 102 104 100 90 92 90 91 94 95 86 81 71 64 60 54 60 39 4 318 300 290 290 285 277 263 258 254 255
156 155 247 250 263 274 231 85 148 121 121 199 85 155 170 195 153 126 118 120 116 112 107 103 109 110 98 95 97 92 85 75 66 55 52 44 37 24 11 16 353 312 287 286 305 267 252 252 251
168 210 220 230 241 254 264 105 356 141 125 65 33 133 165 149 141 125 121 114 117 114 115 105 97 100 116 115 99 87 81 76 64 48 41 29 21 16 10 353 351 348 322 293 275 278 286 273 257
169 195 226 230 234 353 333 92 148 83 139 119 69 67 113 132 153 158 162 158 140 135 125 114 101 89 91 93 88 81 76 65 69 67 45 25 7 344 353 343 336 336 332 322 297 283 273 279 265
201 205 234 326 134 34 359 29 86 132 253 211 179 171 163 158 169 175 193 182 163 154 124 120 111 93 92 89 85 70 66 46 34 47 20 346 351 333 321 319 321 315 319 318 322 291 259 251 250
229 229 243 231 136 96 79 319 349 190 215 152 136 177 160 165 179 187 169 139 141 147 143 135 129 118 99 98 87 90 80 33 20 339 346 349 323 315 304 303 296 288 284 289 298 303 301 276 256
222 243 249 115 145 141 16 282 248 261 259 208 121 139 168 168 180 192 160 159 146 138 144 151 141 135 113 91 68 43 18 12 341 353 341 349 330 309 299 293 298 293 295 270 273 278 287 296 294
11 220 257 227 164 164 163 267 67 249 237 193 170 168 172 180 189 156 148 151 153 148 153 143 129 124 108 94 72 39 10 344 358 349 338 341 333 320 311 314 305 301 295 287 272 259 254 267 285
98 356 337 234 173 127 94 283 237 219 210 209 192 194 190 199 190 175 169 161 172 161 147 127 120 108 95 87 68 35 352 8 352 328 325 320 322 319 317 319 310 300 305 304 293 277 270 259 263
127 74 218 249 161 181 120 264 278 238 181 203 190 196 200 215 193 176 175 176 167 137 133 123 107 104 98 84 47 8 344 346 318 306 309 317 324 333 327 322 314 310 315 304 303 292 277 257 247
293 201 210 291 180 135 179 265 278 90 162 205 215 215 205 202 179 169 156 148 142 137 129 118 112 119 103 62 9 358 345 336 335 345 337 321 321 324 325 315 310 320 316 312 308 302 285 288 271
200 222 243 204 211 144 197 258 271 281 249 213 215 215 197 182 184 157 135 125 125 122 118 123 123 115 92 55 21 351 344 356 341 325 316 324 314 313 311 304 307 315 310 306 302 295 291 282 283
57 206 309 148 321 148 227 262 259 252 236 226 222 203 193 184 186 151 139 133 124 122 117 126 121 100 83 39 16 359 299 300 307 305 294 294 301 301 299 289 294 302 304 305 304 302 298 298 296
260 268 261 195 196 185 252 268 265 243 240 216 201 206 194 169 159 154 144 139 144 149 140 131 118 102 78 97 212 225 277 299 277 291 325 342 334 320 310 321 297 291 295 298 297 299 303 292 280
225 203 215 235 186 251 16 289 271 269 236 205 201 199 187 172 168 162 156 156 150 158 151 136 124 121 109 147 346 339 334 313 297 313 300 319 321 315 310 299 285 282 274 286 285 285 288 291 285
222 236 172 166 100 228 134 274 297 249 245 211 178 184 193 165 171 164 159 160 165 162 148 128 132 125 158 102 58 341 241 282 267 291 291 309 320 321 322 314 308 296 285 281 283 281 272 282 284
219 126 135 128 152 53 242 76 266 252 249 228 213 198 199 171 166 167 168 164 157 151 149 136 131 132 154 116 117 262 281 261 298 307 300 295 292 295 294 304 304 303 300 291 287 285 281 279 287
143 71 43 45 73 356 227 165 274 210 221 232 186 202 187 160 163 163 161 138 142 146 137 138 141 164 150 137 299 304 307 313 309 290 297 298 299 298 297 310 304 299 295 294 291 285 276 273 272
62 104 14 354 3 219 324 156 245 250 237 208 178 179 165 152 150 154 150 149 147 157 153 152 158 186 197 244 295 298 303 286 289 298 292 302 303 305 301 302 295 291 290 286 281 278 274 269 265
188 178 166 198 202 248 359 231 248 228 222 174 150 153 150 153 156 158 158 161 161 161 161 165 163 178 193 258 276 282 279 274 281 284 282 291 298 307 305 299 297 297 292 288 287 282 276 268 264
188 206 192 100 44 62 221 275 290 193 110 107 149 155 173 171 173 170 173 172 162 162 171 168 162 171 197 228 249 285 307 313 310 302 299 306 311 309 315 312 306 300 292 286 282 277 275 274 272
182 205 104 1 176 253 275 271 241 211 201 182 165 181 185 180 174 177 171 162 163 166 161 156 160 177 201 228 257 296 301 316 311 316 317 319 312 311 306 301 296 296 290 287 281 276 270 267 264
139 216 219 151 166 178 188 255 224 222 193 190 197 190 191 181 181 174 168 164 162 158 159 161 161 175 203 214 233 296 316 318 324 325 320 318 314 310 302 297 293 288 287 283 278 272 270 268 267
201 207 184 156 238 219 174 262 340 305 201 179 188 197 200 182 179 168 167 165 165 171 167 170 173 181 198 190 223 298 316 342 337 328 317 307 305 302 294 292 290 289 287 286 283 282 276 269 265